GFSSGP_500_rhum_099.txt.gz
RH
13 13 14 14 12 13 15 16 17 16 13 13 14 15 15 20 19 18 15 14 22 28 18 10 6 9 8 5 4 4 3 3 4 4 5 5 8 10 10 8 6 4 4 5 8 12 24 43 64
19 16 14 13 13 13 16 16 17 16 16 16 15 16 15 15 17 16 18 20 26 29 29 16 10 6 8 7 5 4 4 4 4 4 5 5 7 9 9 8 10 14 6 7 16 28 40 58 72
20 20 19 17 15 14 18 19 16 15 15 16 16 16 16 16 17 16 17 22 26 25 22 16 8 7 7 7 6 5 4 4 4 4 4 5 8 8 8 8 15 16 12 16 21 21 26 37 70
20 19 17 17 18 22 23 23 20 17 14 14 15 15 15 17 18 18 17 17 18 21 21 16 11 8 7 7 7 6 6 5 5 5 4 5 7 8 9 8 11 11 5 6 11 19 22 28 51
22 20 17 17 18 27 33 30 24 21 18 16 14 13 12 15 16 17 18 17 19 23 22 16 12 9 8 8 8 7 6 5 5 6 4 5 7 8 8 6 6 4 3 3 7 12 20 33 50
21 19 15 17 20 22 30 37 30 27 23 20 17 15 14 13 14 13 13 13 12 14 16 13 11 10 10 9 8 8 7 6 6 6 5 5 7 8 6 5 4 4 3 3 5 9 12 13 30
23 18 15 16 17 20 31 31 40 37 36 29 23 18 16 16 15 14 12 11 11 12 11 11 10 11 10 10 9 8 6 7 6 7 5 5 7 7 5 5 6 5 3 4 6 9 10 21 29
28 21 15 17 20 24 38 37 34 40 47 46 38 30 25 21 20 18 17 14 12 12 13 14 14 15 14 13 12 10 8 8 7 7 6 5 7 6 6 7 5 4 4 5 10 22 17 20 71
32 24 20 20 23 26 38 25 27 28 38 48 50 44 36 32 28 26 24 21 18 17 21 20 19 18 18 18 15 12 10 10 9 8 6 5 7 5 6 6 5 4 5 12 33 35 41 40 31
30 27 26 26 25 22 29 25 29 21 21 53 55 54 47 43 41 41 40 42 39 34 29 26 22 32 35 34 24 15 11 10 10 8 7 5 6 6 6 6 5 5 5 10 26 46 43 35 30
29 24 28 27 28 24 21 26 28 23 20 41 61 60 60 52 44 36 40 48 52 48 44 34 28 42 41 41 35 22 12 11 10 9 7 6 6 6 6 5 6 6 10 17 27 46 55 42 49
29 20 20 24 28 26 22 23 25 25 25 31 31 45 42 52 43 34 47 49 56 57 56 52 37 43 42 43 40 37 32 15 12 12 8 6 6 7 7 6 6 7 10 27 26 39 69 72 75
35 30 26 22 26 27 26 24 24 25 26 30 42 46 49 49 58 61 56 50 55 65 70 65 61 51 41 44 44 43 20 26 26 12 8 7 6 7 7 6 6 8 14 31 29 51 89 74 69
44 40 33 29 25 28 24 25 25 24 35 28 39 52 59 70 72 65 76 77 70 72 74 79 73 58 48 43 49 50 34 30 34 16 11 8 7 8 7 6 7 9 26 32 27 46 71 91 80
48 45 39 35 35 28 24 16 21 25 25 25 26 35 51 64 84 68 59 79 80 71 72 66 79 68 58 41 49 48 72 18 19 23 18 8 7 8 8 7 10 12 30 28 23 58 74 97 91
48 42 40 40 40 36 28 15 24 31 30 33 37 38 36 35 44 48 56 66 84 81 66 69 74 80 70 45 43 33 62 29 15 16 12 8 8 10 11 9 12 17 36 23 22 45 80 97 97
49 43 38 36 43 35 28 20 21 30 32 27 20 21 33 39 50 57 63 57 77 90 92 90 89 82 75 53 43 46 45 53 17 14 11 9 9 12 12 11 14 33 37 19 18 27 51 97 97
46 41 36 33 40 40 30 20 20 22 20 14 12 15 18 17 17 25 39 55 68 69 74 84 92 87 75 68 52 44 36 36 34 21 11 11 13 15 14 13 16 44 38 17 17 15 28 95 98
42 37 33 30 34 28 25 17 17 16 13 13 14 14 15 15 14 17 18 24 42 55 55 66 75 88 92 74 48 45 30 38 34 36 33 24 27 19 15 14 21 50 35 16 17 15 12 16 80
34 31 29 27 31 26 26 17 17 17 16 17 15 14 13 9 8 12 18 24 30 38 70 76 69 73 76 79 37 30 18 28 41 57 80 32 26 17 15 16 26 51 37 16 17 14 12 12 16
33 31 28 25 24 23 21 17 17 14 13 12 12 13 10 8 9 14 29 27 38 51 69 79 76 72 64 36 36 31 28 34 50 56 94 60 42 18 17 17 37 52 37 19 16 15 14 14 13
32 24 24 22 21 20 20 17 16 12 10 8 8 8 6 6 8 14 24 28 48 70 69 69 61 50 65 25 53 63 21 31 60 92 94 66 22 16 21 24 47 53 34 19 16 16 15 14 12
27 23 22 21 20 18 18 24 14 10 8 6 6 6 6 8 17 29 34 58 66 81 87 66 51 49 42 18 14 21 12 36 67 87 89 67 18 22 29 39 56 52 29 17 17 16 12 15 32
28 23 20 19 17 16 15 15 10 8 7 7 19 36 41 60 49 78 83 78 95 88 83 89 88 86 91 56 51 32 12 56 72 64 45 46 31 32 46 47 58 50 25 17 17 14 23 40 50
21 18 16 17 15 13 9 7 7 10 7 6 13 25 82 66 90 93 94 97 88 96 92 89 61 44 28 21 84 18 60 37 47 44 30 40 36 43 56 46 63 47 21 17 14 18 33 39 54
16 16 15 14 11 9 8 8 12 20 21 23 28 49 78 94 86 97 98 96 96 96 100 98 95 86 80 64 29 26 34 40 35 40 31 46 38 45 45 64 68 35 22 16 16 13 14 42 55
12 12 14 17 10 12 7 7 18 36 48 64 63 69 64 93 88 97 98 98 92 94 99 54 95 94 75 92 95 57 58 70 69 72 51 53 42 37 50 73 65 31 23 14 19 13 14 48 45
8 8 11 19 41 33 21 14 20 30 48 77 82 98 92 88 84 95 96 90 75 76 96 83 69 70 83 81 67 82 77 96 100 96 86 63 44 51 52 78 66 25 25 14 27 22 17 16 24
4 4 5 6 54 97 33 23 23 38 55 66 98 95 99 99 99 98 98 96 58 71 64 97 98 97 95 97 98 98 98 97 96 98 96 78 64 64 56 81 61 24 25 17 30 24 20 14 60
4 5 6 6 15 79 67 28 38 51 67 99 100 100 98 100 98 96 94 85 52 42 57 94 96 94 81 98 97 98 98 97 97 97 94 93 98 57 68 79 41 23 23 25 28 28 16 28 86

GFSSGP_500_rhum_102.txt.gz
RH
18 18 18 16 14 15 14 16 17 16 15 13 11 10 12 16 17 14 13 14 14 16 22 27 19 11 6 8 8 6 4 3 4 4 4 4 5 5 8 9 10 8 15 16 8 11 20 24 36
18 18 18 19 19 17 17 19 18 16 15 15 15 14 14 15 14 15 15 15 14 15 18 21 22 16 14 6 6 6 5 4 4 4 4 4 4 5 8 9 9 8 13 14 11 11 10 17 23
22 20 18 17 18 22 27 23 20 18 16 15 14 15 16 17 17 16 16 16 16 17 17 18 26 26 18 10 7 6 6 5 4 4 4 4 5 5 7 8 9 9 10 14 6 5 6 13 22
24 21 18 17 18 22 35 34 28 22 19 17 15 15 14 15 17 18 17 17 17 18 19 21 25 26 23 13 8 7 7 7 6 4 4 4 5 5 6 8 9 8 6 6 6 3 3 7 19
22 18 15 18 21 25 34 26 28 30 26 22 18 17 15 15 16 17 18 18 19 21 24 26 23 24 20 15 11 10 9 8 7 6 5 4 5 5 5 8 9 11 7 7 7 4 3 5 12
20 20 17 20 22 22 27 26 24 25 29 30 25 22 21 19 18 19 18 19 20 21 20 16 17 19 16 12 10 10 10 9 7 6 5 5 5 5 5 7 8 6 8 8 6 3 3 5 8
21 20 20 22 24 23 28 27 30 25 24 30 29 29 29 28 24 21 19 18 18 17 16 16 16 16 15 14 12 11 11 10 8 7 6 6 6 6 5 7 7 6 8 7 4 3 3 14 15
25 21 20 26 30 28 33 33 30 25 27 28 22 20 28 32 36 34 30 25 21 19 17 16 16 16 18 19 16 14 14 13 11 10 9 8 7 6 5 6 7 7 8 7 4 3 7 22 28
29 23 22 31 32 32 31 27 27 24 22 24 24 18 19 24 34 39 40 39 37 32 38 34 25 27 26 25 21 19 18 16 13 12 11 9 8 7 5 6 6 7 7 6 4 3 5 19 35
33 28 27 32 33 27 31 30 29 25 21 24 27 21 17 19 24 35 44 46 48 48 49 52 46 41 36 26 28 31 29 23 16 13 12 10 8 7 6 6 6 7 6 5 4 19 15 46 43
33 30 35 32 41 32 22 28 30 29 27 28 30 34 29 22 23 29 36 51 54 56 63 67 60 49 44 29 36 36 35 30 22 14 13 12 11 9 7 6 6 7 6 5 4 4 11 14 33
38 36 38 42 44 40 28 25 30 31 30 32 34 37 33 33 29 33 40 54 58 63 64 62 74 64 54 35 40 38 37 32 30 30 20 16 13 10 8 6 7 7 6 5 4 5 10 20 41
50 45 44 44 43 43 40 34 30 30 32 33 35 38 42 38 40 36 41 45 54 57 62 73 67 77 65 54 51 45 40 34 32 34 20 19 20 16 10 7 8 8 7 5 4 14 18 31 44
62 55 50 47 47 46 42 40 34 30 34 26 28 30 37 48 56 50 45 44 53 55 53 85 80 80 84 76 60 57 46 42 37 35 22 24 22 20 12 8 8 9 8 5 6 14 30 53 62
67 64 56 53 52 47 46 38 38 36 33 33 30 30 31 32 39 51 45 36 42 37 42 53 77 67 87 84 79 70 53 51 55 44 57 28 24 23 20 8 9 10 8 6 11 21 37 51 54
66 64 60 56 54 50 43 34 36 35 32 30 31 31 30 32 32 35 36 37 45 41 50 60 52 42 57 86 90 89 68 62 59 43 68 45 21 23 20 9 10 11 8 7 9 27 30 38 43
65 62 60 57 55 50 45 37 35 36 35 32 29 31 37 42 49 50 51 51 62 70 73 67 59 42 43 55 83 99 96 78 65 66 60 48 21 23 21 12 12 11 9 8 16 35 22 21 42
67 62 58 56 54 50 45 39 36 33 30 29 29 30 32 34 37 44 37 37 44 55 62 73 66 45 61 68 67 90 94 97 71 63 74 91 25 26 23 16 14 15 10 11 27 36 17 17 18
60 58 56 57 52 48 44 40 33 30 27 27 27 23 18 16 15 16 17 23 30 34 40 47 48 47 57 66 77 75 91 92 93 70 51 82 33 25 20 20 23 15 11 14 39 32 17 17 15
50 52 53 48 40 39 33 29 25 28 27 25 22 18 16 14 12 12 13 13 17 20 25 28 24 28 36 49 69 78 89 91 81 66 64 74 61 30 29 31 22 16 14 17 44 34 17 16 13
59 53 48 42 35 32 29 24 24 22 21 20 19 16 15 13 12 10 9 9 10 14 28 32 32 30 32 49 70 69 79 80 66 73 70 47 53 48 55 57 28 17 15 21 50 39 22 16 14
58 45 40 36 32 30 25 23 21 20 19 18 17 16 15 13 12 12 9 8 7 7 10 22 34 28 34 61 52 65 79 76 89 71 78 36 63 92 99 89 31 15 14 28 55 36 24 17 15
51 38 31 30 27 26 25 24 21 20 20 19 17 14 11 10 8 8 7 6 6 6 7 24 32 35 46 64 73 76 72 66 59 44 85 49 89 96 99 91 25 12 16 42 55 33 22 16 12
34 32 26 24 26 34 27 24 19 18 17 14 11 8 7 6 5 5 5 5 5 9 20 35 46 60 70 85 84 56 39 40 44 22 52 72 80 97 100 94 22 12 21 38 55 35 19 16 13
65 66 34 29 27 27 23 20 19 16 12 9 8 6 6 7 7 8 17 32 49 48 76 71 77 87 84 91 49 44 38 32 60 67 65 85 79 98 100 60 20 12 25 34 59 35 20 17 11
52 33 20 23 24 22 18 16 12 10 8 7 5 5 8 16 20 22 31 70 80 96 97 96 99 90 92 87 87 68 56 53 37 30 32 77 100 98 97 55 47 14 28 42 61 29 21 16 12
24 20 18 17 15 13 12 9 8 8 8 7 8 12 27 23 35 46 50 85 84 91 91 97 100 98 100 96 81 60 89 76 61 56 51 95 86 79 75 62 39 21 37 51 63 28 22 16 13
19 16 12 10 9 7 5 5 5 5 7 8 21 26 39 69 74 96 83 83 93 92 92 99 100 98 96 91 72 56 54 87 84 61 60 90 91 97 80 74 48 34 38 59 56 25 21 19 13
8 7 6 5 4 4 4 4 4 13 13 19 27 34 46 81 99 100 100 95 91 97 86 91 100 98 98 97 70 93 84 80 64 73 80 85 94 97 99 91 74 39 30 56 50 25 22 26 16
4 4 4 4 4 4 4 3 4 7 9 43 53 77 93 97 100 99 99 100 100 99 63 88 92 97 98 97 93 95 96 81 83 93 65 96 98 96 97 96 76 54 40 59 47 26 23 26 19

GFSSGP_500_rhum_108.txt.gz
RH
13 13 15 18 18 17 17 15 15 14 13 14 14 14 14 12 12 11 12 12 13 15 16 16 17 17 15 14 14 8 6 5 4 4 4 3 4 4 4 5 5 7 8 9 9 9 9 7 5
15 16 16 19 22 18 21 19 15 13 12 14 14 15 16 15 15 15 14 14 15 16 19 19 18 18 18 16 16 16 12 6 4 4 4 4 4 4 4 4 5 5 7 8 9 8 6 7 7
18 18 19 23 24 23 22 22 20 16 15 14 14 15 15 14 14 15 16 16 16 18 19 19 19 20 19 18 19 16 14 11 7 5 4 5 4 5 4 4 5 5 6 7 9 12 8 9 8
22 20 20 23 24 22 23 22 19 18 20 18 18 18 16 16 15 16 16 16 17 18 19 19 20 20 21 22 23 19 16 15 13 7 6 6 6 6 6 5 5 5 5 6 8 10 10 9 6
26 23 22 25 27 26 26 23 22 20 20 18 21 23 24 21 20 19 18 18 18 18 17 17 19 22 24 24 24 22 16 18 15 13 9 8 8 7 6 6 5 5 8 7 7 8 10 10 8
29 28 26 28 31 27 28 27 27 25 22 20 22 20 20 18 23 25 23 21 19 18 17 18 18 19 21 23 24 19 15 13 13 11 10 9 9 8 7 6 6 9 15 13 13 10 12 16 8
34 30 30 31 35 33 30 30 30 32 28 19 21 22 20 18 20 24 29 27 24 23 22 20 21 20 21 22 22 19 17 15 13 12 11 10 10 10 10 9 8 8 9 14 13 25 13 13 8
39 34 31 36 38 37 36 31 26 30 29 26 27 25 23 21 21 24 28 30 33 31 30 28 28 26 25 24 24 22 22 22 17 15 14 13 14 13 12 12 13 20 14 14 18 16 8 7 8
44 37 35 39 39 38 37 37 32 31 32 33 33 28 28 28 25 26 26 30 34 37 39 38 34 34 32 33 34 36 39 30 25 20 19 17 17 17 16 15 13 14 14 15 16 19 6 10 22
45 41 42 42 44 41 38 37 37 35 36 39 42 37 26 28 29 27 27 28 28 35 42 43 44 48 46 41 42 44 52 44 37 30 24 21 21 23 24 21 14 19 20 14 15 22 15 15 26
49 47 47 43 47 45 44 41 39 38 36 45 43 41 37 22 27 29 28 27 29 30 34 46 48 43 47 48 46 50 56 59 47 40 31 26 27 32 32 28 34 36 31 19 13 12 11 13 16
60 60 58 56 54 51 54 54 50 42 40 48 45 46 44 38 29 23 26 26 28 38 41 40 44 44 43 48 56 56 64 63 61 48 44 34 34 38 34 31 39 38 30 25 18 17 13 10 18
51 60 59 61 58 62 58 58 58 50 55 52 49 50 50 46 42 38 29 26 26 28 33 44 42 51 54 58 56 63 66 66 72 62 51 48 38 37 39 35 37 38 32 26 23 13 15 16 20
34 35 40 48 52 60 62 59 54 60 62 55 53 50 52 50 48 45 39 31 27 27 27 30 39 45 46 55 61 68 67 84 69 73 66 56 58 46 40 38 37 43 44 33 29 12 12 17 31
18 17 22 37 48 51 54 46 57 60 63 60 63 64 58 55 52 48 43 40 34 30 29 31 33 38 45 63 61 70 75 85 84 75 79 72 65 65 56 43 44 50 48 63 27 20 11 11 17
7 7 16 24 37 45 44 43 40 48 52 57 59 60 58 54 51 47 44 40 37 33 32 32 33 36 43 54 57 70 76 70 73 74 84 87 80 75 72 57 51 50 50 60 26 19 12 9 9
10 6 7 19 20 39 43 42 34 41 52 59 62 59 56 54 51 47 45 41 38 36 33 31 30 37 42 51 61 66 70 76 78 73 77 87 91 91 87 71 61 49 50 59 39 21 13 10 8
26 6 9 12 28 38 26 28 28 43 49 59 58 56 52 50 48 46 43 40 38 36 35 37 36 39 38 41 46 48 51 58 68 65 76 87 96 98 98 81 68 60 60 65 48 20 14 11 8
17 9 8 24 43 33 33 31 39 47 48 50 49 50 52 50 47 45 42 38 35 33 36 38 41 42 45 50 48 42 40 44 41 42 57 82 80 89 98 98 81 67 77 81 73 21 18 13 9
16 9 12 27 52 49 48 41 40 44 47 46 46 42 40 39 37 34 32 29 28 27 27 27 28 31 37 41 40 45 49 51 53 39 34 44 66 83 91 100 96 81 71 86 83 25 21 16 12
20 14 20 38 50 59 54 39 45 50 53 52 46 42 37 33 29 27 25 23 22 21 21 20 19 18 17 15 16 18 18 19 20 24 41 48 62 66 87 95 97 91 76 88 79 29 25 20 15
36 63 64 63 79 75 43 46 33 44 46 42 38 35 32 29 26 23 22 20 18 17 17 16 16 15 14 14 14 14 14 12 13 16 27 39 64 71 68 91 92 90 80 85 86 43 56 32 17
87 85 87 82 78 74 69 63 53 47 43 38 34 31 29 26 24 22 21 20 20 19 18 18 18 17 17 15 14 12 11 10 12 12 16 28 44 53 56 77 91 85 86 92 90 48 60 48 16
100 100 100 100 100 87 70 67 53 50 48 49 43 37 33 29 25 23 26 23 18 15 14 12 11 10 9 8 8 9 10 9 9 9 10 27 39 49 42 63 81 78 78 91 94 59 49 55 17
100 100 87 69 73 69 66 64 56 50 47 48 42 29 25 22 20 17 15 13 11 9 7 5 4 3 3 3 4 4 4 6 7 7 8 20 26 40 45 42 58 85 80 84 98 72 50 60 16
100 100 100 100 100 100 68 58 60 58 59 49 33 25 19 14 12 11 9 8 7 4 4 3 3 3 4 5 4 4 5 4 4 5 11 18 22 40 56 61 69 82 84 86 78 78 95 82 18
96 99 98 93 93 91 83 74 68 56 43 33 24 18 13 8 6 6 5 4 4 3 3 3 7 11 23 27 46 49 26 29 13 12 15 29 34 35 61 71 76 62 81 88 91 94 98 92 19
100 99 99 100 100 97 74 49 38 38 32 21 14 10 8 7 6 5 4 3 3 3 4 17 49 52 46 47 77 93 85 85 59 55 52 84 82 64 75 74 74 74 67 90 87 94 97 88 31
100 99 100 100 86 40 28 31 28 22 14 9 7 7 8 7 6 4 4 3 3 10 42 59 80 78 94 97 98 98 100 100 100 92 79 100 96 79 70 64 68 62 49 93 99 98 97 94 64
100 80 39 20 14 14 12 15 14 11 8 7 7 6 6 5 4 3 3 4 29 50 76 89 87 98 96 99 94 95 98 99 98 94 91 98 97 78 83 59 70 66 46 83 98 97 96 92 64

GFSSGP_500_rhum_111.txt.gz
RH
16 16 16 15 15 16 16 30 13 12 11 10 12 13 13 14 12 24 13 12 11 12 13 15 16 17 18 17 15 13 14 10 6 5 4 4 4 4 4 4 4 5 6 7 8 8 9 9 9
20 19 19 19 18 19 35 42 19 15 11 12 12 13 14 14 14 14 14 14 13 14 14 16 18 20 19 17 18 16 16 15 12 7 4 4 4 4 4 4 4 4 5 6 7 8 10 10 10
24 22 21 22 23 24 48 42 20 16 14 13 13 14 13 13 15 16 15 16 16 16 17 17 18 19 18 19 18 18 19 17 14 12 8 5 4 5 5 5 4 4 5 5 6 7 8 11 10
28 26 25 23 26 27 28 25 20 16 15 16 17 18 15 15 15 15 15 16 16 16 16 18 18 18 18 17 17 17 17 18 14 14 14 12 8 6 7 7 6 7 5 5 5 5 7 8 9
32 29 27 25 27 28 29 24 19 21 20 19 19 19 17 16 19 19 18 17 17 16 16 17 17 17 18 18 17 16 16 15 14 13 13 13 12 9 8 8 7 6 5 5 10 11 11 10 10
37 33 30 31 32 36 31 25 24 24 24 22 22 21 21 16 16 20 23 22 21 20 18 18 17 17 17 19 18 18 16 17 15 13 12 11 10 10 9 8 8 7 6 8 9 12 20 21 17
41 38 34 34 35 38 40 29 28 26 25 27 26 26 22 19 18 19 19 22 24 25 23 21 20 20 19 18 19 20 19 17 17 17 15 14 12 10 10 10 10 9 9 10 11 14 20 17 14
43 42 39 37 38 40 43 35 35 28 28 23 29 30 30 25 26 25 23 22 21 21 25 28 27 25 24 24 25 24 24 24 25 25 23 20 15 14 14 12 16 21 20 14 14 16 18 20 16
51 46 42 46 47 43 40 38 36 33 35 30 29 33 34 35 30 28 30 28 26 24 25 26 32 34 34 32 32 32 30 32 35 38 28 25 22 20 17 16 18 19 19 19 18 17 16 15 17
56 53 52 55 48 45 43 40 39 34 32 36 35 36 37 34 33 33 27 30 29 29 27 26 31 38 38 40 40 40 36 38 41 50 48 40 32 27 23 20 21 24 25 30 36 33 22 14 17
60 57 64 58 54 54 51 45 46 42 40 35 35 34 34 35 40 39 37 25 29 28 28 29 32 36 44 43 42 44 48 46 45 48 62 52 45 38 31 26 35 38 30 37 40 36 21 17 12
37 53 52 64 66 61 64 62 58 55 49 49 47 39 41 41 43 45 44 34 26 26 27 29 28 33 44 45 41 41 42 50 50 51 59 66 56 46 36 30 32 37 44 41 39 34 35 33 24
10 27 34 41 40 50 55 58 66 65 65 64 59 57 56 55 52 50 50 46 40 35 29 28 28 28 28 36 44 45 47 56 58 55 56 66 71 61 46 35 35 38 37 41 42 38 33 43 32
6 5 6 15 21 23 28 36 43 54 71 77 75 71 68 71 80 87 80 55 46 43 38 31 29 34 33 38 42 48 53 51 58 58 60 65 65 70 63 49 39 40 42 39 44 48 52 37 39
7 6 6 6 11 7 6 6 21 35 40 56 75 77 72 69 71 72 76 75 60 51 44 39 34 49 36 42 44 44 49 47 57 60 61 79 76 75 74 70 60 55 47 44 46 50 56 41 26
9 8 7 12 8 6 6 6 11 16 24 55 58 58 58 58 60 60 56 61 63 58 47 43 39 38 36 40 47 54 53 55 54 72 70 74 82 77 80 78 76 68 66 56 50 52 54 49 21
9 8 10 11 9 9 7 6 7 9 15 37 55 56 56 59 59 57 55 57 55 51 48 46 44 40 38 37 54 60 65 64 62 72 71 72 78 77 71 86 86 85 78 75 58 56 53 56 18
13 19 12 10 26 17 6 8 11 17 10 16 51 48 53 58 57 47 56 54 54 52 50 46 44 43 40 39 41 51 59 61 58 61 64 72 72 76 82 83 91 85 87 85 74 64 58 62 20
16 16 14 14 51 20 21 11 13 25 22 26 45 47 52 49 43 43 44 45 49 49 47 45 43 42 41 41 40 41 46 48 46 58 60 59 62 71 74 74 87 88 94 89 93 70 66 77 52
30 23 29 40 39 55 36 26 23 31 47 50 55 47 41 41 42 40 40 38 37 37 39 40 38 37 38 40 40 43 44 43 43 50 60 54 52 52 57 70 80 87 85 96 92 85 72 75 63
42 44 49 71 56 62 36 35 34 53 49 58 58 55 40 47 48 44 42 38 34 32 30 28 26 26 26 29 32 35 38 36 35 38 35 31 40 56 53 58 71 69 80 83 94 91 76 78 72
82 75 94 100 84 59 86 84 91 60 42 45 49 49 41 49 45 41 37 34 32 29 26 24 22 21 21 20 19 18 17 17 17 17 17 17 21 27 34 42 58 62 68 79 99 96 91 77 79
97 86 100 96 97 99 81 99 42 85 100 58 54 45 50 46 40 36 34 31 27 25 22 21 20 19 18 18 17 16 15 15 14 13 13 13 14 16 25 35 38 51 57 76 97 98 92 79 81
75 100 98 99 100 100 67 97 88 97 95 100 41 53 44 36 35 33 30 28 27 26 25 26 34 32 20 17 15 14 13 13 12 14 14 14 12 11 16 22 31 54 52 68 87 96 89 79 80
100 100 100 100 100 84 90 100 87 100 96 84 43 61 48 44 42 39 33 29 25 24 22 20 18 15 13 11 10 9 8 7 8 10 11 13 23 33 13 14 27 45 44 60 80 83 80 88 86
96 100 100 100 100 100 100 87 100 84 78 91 77 53 60 54 40 32 28 23 19 17 15 12 10 9 8 7 6 6 5 4 3 3 5 7 9 26 44 9 18 40 47 68 78 75 78 86 74
100 100 100 100 92 99 100 100 98 99 100 94 82 76 43 26 22 20 19 17 15 14 12 8 7 5 4 4 3 2 2 4 5 4 3 3 4 15 41 21 12 33 50 66 71 69 61 63 98
100 99 98 100 96 100 100 100 100 81 89 99 73 37 22 19 16 14 13 12 10 10 8 6 4 4 3 2 3 25 31 30 24 15 18 6 4 15 35 11 16 35 43 61 68 62 61 67 66
100 99 100 99 100 100 100 100 100 99 98 70 27 15 16 16 15 13 12 10 9 7 6 4 4 3 3 21 36 54 50 36 43 64 68 38 18 37 36 10 24 37 48 67 71 51 61 67 69
100 100 100 100 100 100 99 88 84 77 54 26 15 12 10 10 9 9 8 5 4 3 3 3 2 5 38 58 63 88 83 84 95 99 96 86 69 72 62 39 50 43 58 72 71 72 72 71 86

GFSSGP_500_rhum_114.txt.gz
RH
21 19 17 16 15 12 13 16 44 38 21 9 10 11 12 14 15 18 10 14 16 12 10 11 14 14 14 15 15 15 14 13 14 14 11 7 5 4 4 4 4 4 5 5 5 7 8 8 9
23 23 22 20 18 15 35 51 46 40 14 13 14 12 14 14 15 14 12 14 13 13 13 13 14 15 16 16 16 16 15 14 14 14 14 10 5 5 4 4 4 4 4 4 5 6 6 7 9
28 26 25 24 21 17 31 53 52 44 23 22 16 15 16 14 12 15 15 16 15 15 16 16 16 17 19 18 16 16 15 14 15 14 13 13 9 6 5 4 4 5 6 6 6 5 5 7 8
32 31 30 28 25 22 30 64 63 25 24 23 20 20 15 17 18 15 14 14 15 15 16 16 17 18 18 18 18 17 14 13 14 14 13 13 14 12 9 6 6 7 7 8 8 5 5 8 9
35 34 35 33 28 26 30 39 54 21 23 23 19 23 22 14 18 22 20 17 17 16 16 16 16 16 17 16 16 16 15 13 13 13 12 12 11 11 12 10 8 7 7 9 7 5 7 12 12
37 38 38 38 33 34 70 78 64 24 25 25 23 28 24 16 14 22 21 24 23 21 20 19 18 17 17 17 16 16 16 15 15 14 14 13 12 11 10 10 10 10 16 9 6 9 9 10 15
40 38 38 40 38 33 37 81 35 25 32 26 22 23 32 32 17 17 21 21 20 21 23 25 24 21 19 18 18 17 17 18 17 16 15 17 16 14 12 11 11 10 13 19 16 15 16 16 16
44 41 44 45 47 45 42 39 31 30 33 28 28 28 31 28 22 25 32 27 25 23 21 22 24 26 26 24 22 21 21 21 21 20 20 18 20 22 19 16 14 14 18 21 29 26 24 18 18
53 49 48 49 52 52 49 39 35 34 32 36 31 30 35 31 28 30 30 30 30 29 27 25 26 26 29 30 30 30 29 29 29 30 30 29 27 26 27 28 24 20 18 20 19 22 28 26 26
36 40 53 59 55 54 48 52 48 45 41 37 37 34 31 37 34 31 32 37 31 30 28 27 27 30 33 31 32 33 31 31 32 36 38 38 37 37 36 34 33 32 26 23 26 29 36 35 32
7 9 36 59 62 60 57 62 55 51 45 45 42 39 40 30 31 33 40 41 43 38 32 25 29 34 45 42 37 33 33 29 33 41 46 42 41 41 38 41 36 36 33 29 41 34 41 38 34
9 8 6 8 44 50 45 45 62 64 61 60 54 47 42 47 45 47 50 50 47 45 40 32 34 35 34 41 38 34 30 24 34 39 43 47 48 49 47 46 43 38 37 31 34 41 44 40 40
10 11 10 9 6 6 8 19 38 40 54 61 63 65 64 61 61 65 67 63 58 55 50 47 93 50 36 34 40 44 42 40 37 41 41 45 50 49 53 48 51 47 45 37 37 39 43 44 46
11 11 11 11 10 8 7 6 6 15 18 20 30 45 50 56 71 82 89 93 92 83 67 56 47 46 95 64 62 63 52 46 46 48 50 49 54 54 53 55 50 56 64 47 40 42 44 45 47
12 12 12 11 11 10 10 8 8 8 9 7 8 13 34 46 57 60 69 86 78 75 68 73 73 56 79 96 60 89 54 50 47 50 60 58 64 60 63 58 73 74 61 67 58 53 51 47 48
15 13 12 14 14 12 10 7 9 8 8 8 7 13 16 23 37 50 56 44 48 59 64 63 81 90 72 50 59 54 55 51 40 46 59 62 61 69 69 78 83 79 67 59 72 68 66 59 52
9 10 11 10 10 15 11 7 7 7 7 6 7 8 23 33 30 41 36 32 34 56 58 59 61 66 65 72 82 58 54 57 56 55 56 73 72 77 71 70 78 74 75 59 60 74 78 75 66
10 10 6 5 15 100 87 10 10 7 12 6 6 15 18 50 58 21 7 7 46 52 58 57 57 57 54 51 49 47 51 56 73 61 66 65 68 71 74 65 78 86 74 67 43 68 86 86 75
9 8 9 6 7 54 86 55 13 9 10 10 9 12 22 50 69 26 5 11 54 49 50 54 54 54 53 53 52 50 48 48 49 50 58 92 53 53 60 65 56 82 84 88 71 56 75 85 84
18 15 12 16 14 26 45 92 30 46 21 23 37 45 32 72 67 28 13 45 43 42 45 44 44 48 50 49 47 45 45 46 48 50 50 54 51 46 46 65 51 60 83 96 99 64 82 88 88
19 46 36 38 29 32 64 88 57 38 49 52 46 51 85 77 36 25 46 47 44 44 45 42 38 35 37 37 38 37 37 37 38 41 41 42 47 42 41 76 73 66 75 89 94 96 79 91 89
100 51 100 99 100 97 65 96 99 37 58 83 58 100 71 35 25 37 50 45 45 39 43 41 37 35 34 30 28 27 26 27 29 29 29 31 35 35 30 61 68 65 57 62 80 90 87 91 88
98 100 95 69 65 100 96 98 78 92 98 94 100 86 61 41 57 55 47 46 43 40 40 36 33 31 28 26 24 23 22 21 21 20 20 19 18 18 17 15 22 58 30 25 49 67 74 80 87
62 52 71 80 96 96 53 92 78 74 100 100 99 89 60 48 68 57 51 46 44 41 40 38 33 29 26 23 22 21 21 20 18 17 17 16 16 15 20 23 34 36 27 19 31 45 55 64 72
74 77 100 98 99 69 98 100 76 98 92 100 93 98 49 79 68 41 38 35 35 38 40 40 38 34 31 27 25 26 25 24 24 21 16 14 14 13 12 22 66 31 17 24 24 34 44 53 52
99 100 100 100 100 97 99 87 100 80 100 100 99 91 76 90 83 63 52 49 44 40 37 34 30 25 20 17 15 13 12 11 11 11 10 10 8 8 8 8 18 99 37 16 21 48 38 43 57
78 76 100 94 77 86 72 92 100 100 100 100 100 100 100 100 98 81 68 65 54 39 28 24 20 17 14 13 11 9 7 4 3 4 4 5 5 5 5 6 21 30 58 36 13 18 30 32 61
81 98 100 100 98 100 97 100 100 96 100 100 99 98 97 100 93 82 63 39 26 24 21 18 17 17 14 11 8 5 4 3 3 3 3 4 4 3 3 3 10 18 38 42 22 16 20 48 54
100 100 95 99 99 100 97 98 86 98 100 100 100 100 96 97 70 21 13 13 15 16 16 14 12 8 6 5 5 4 3 2 4 22 40 49 39 35 19 16 6 9 41 41 34 13 32 64 63
100 93 82 82 79 98 100 98 94 100 100 100 97 84 97 43 17 14 13 12 12 10 9 6 6 5 4 3 3 3 3 14 38 44 57 56 49 44 38 44 14 7 64 59 53 18 38 61 76

GFSSGP_500_rhum_117.txt.gz
RH
24 23 19 18 17 16 15 18 16 19 23 33 35 33 31 27 16 15 12 12 16 18 24 19 12 11 12 13 13 13 13 14 14 14 13 14 12 9 4 4 3 4 4 4 4 4 5 6 6
26 27 25 22 20 19 23 18 25 41 34 35 33 32 25 19 14 12 14 16 18 16 13 13 14 14 14 14 14 14 15 15 15 14 14 14 13 12 7 4 4 4 4 4 4 4 4 4 5
28 29 28 26 24 22 27 25 35 55 50 47 36 29 33 22 21 17 16 16 15 16 16 15 15 15 15 16 16 16 16 16 15 14 14 14 13 13 12 7 4 4 4 4 5 6 8 6 5
29 29 29 30 28 25 21 28 46 48 49 34 36 34 21 20 17 18 22 19 16 16 17 16 16 16 16 17 17 16 16 15 13 13 13 13 13 12 12 12 12 8 6 6 6 7 8 5 6
31 30 30 31 33 30 27 34 78 65 28 25 26 29 24 19 18 21 22 22 22 20 18 17 16 16 16 16 16 15 14 14 13 13 12 12 12 12 11 11 11 11 10 10 11 9 7 5 7
35 32 32 33 35 34 28 28 39 67 28 20 30 29 24 20 20 22 26 22 20 23 25 24 21 19 18 18 17 16 15 14 14 14 12 12 12 12 11 11 10 10 10 10 14 19 9 12 13
37 34 39 38 40 41 34 31 39 36 26 26 31 28 24 22 20 23 20 31 24 22 23 25 26 25 24 22 21 20 18 17 16 16 15 15 14 13 13 14 12 12 12 12 14 16 20 22 20
47 43 46 46 46 45 46 51 40 33 29 27 30 38 31 28 25 25 25 29 32 20 25 25 24 24 23 24 26 26 24 23 21 20 19 19 18 18 18 21 20 20 21 19 17 17 17 18 22
43 41 52 56 57 54 50 40 36 32 34 37 34 36 42 36 34 30 30 25 33 33 30 30 31 28 26 26 27 26 25 25 25 25 27 29 27 24 24 22 21 22 25 27 26 24 23 23 26
6 8 9 21 42 52 60 58 53 50 46 44 44 39 37 40 34 33 35 40 36 37 37 35 33 30 30 30 29 28 27 27 28 29 30 32 34 31 30 29 28 31 28 27 30 30 28 30 32
10 8 9 8 6 10 28 56 67 69 64 64 54 48 42 40 40 40 46 51 40 33 35 41 42 38 32 31 38 37 36 34 32 31 33 32 37 42 40 36 31 27 31 26 27 32 30 36 37
9 10 9 9 10 10 9 7 11 23 42 52 61 61 59 56 53 47 40 59 60 56 41 35 46 66 41 40 36 40 55 58 47 39 42 40 36 39 44 44 39 34 28 38 30 33 32 33 37
12 11 10 11 11 11 12 11 11 8 7 7 19 34 35 35 39 48 60 56 63 64 53 51 57 54 58 85 67 54 49 66 66 51 48 44 43 43 44 49 47 44 38 40 39 37 38 35 38
14 12 12 13 14 14 13 12 12 12 12 11 9 8 10 7 8 18 37 48 57 53 54 63 63 64 62 97 89 96 87 78 63 65 67 59 53 49 47 52 50 51 50 43 41 43 50 43 39
15 16 15 15 16 16 22 11 14 16 14 13 11 9 8 8 9 10 17 23 18 30 38 39 39 56 96 92 94 90 96 93 94 93 87 72 62 56 53 56 49 53 53 60 55 58 63 61 55
17 17 16 15 13 11 24 9 11 11 10 11 10 8 8 8 7 8 10 6 6 8 20 40 41 55 75 79 77 93 84 96 97 96 96 96 74 62 49 55 61 54 57 67 78 74 66 63 59
18 16 13 11 9 10 27 5 4 4 4 4 5 6 6 12 10 8 6 6 5 5 15 41 45 45 50 57 62 73 82 88 89 96 93 96 86 57 49 52 59 60 43 48 71 72 73 70 57
11 10 8 7 7 10 9 9 6 6 8 6 5 5 10 27 39 14 8 6 6 7 30 34 28 20 49 56 56 62 66 64 62 72 88 96 96 88 66 56 67 66 62 41 48 74 74 65 50
10 9 10 10 8 8 6 9 16 33 49 27 21 12 9 77 72 32 12 7 6 6 29 28 22 32 51 54 53 55 58 58 56 52 52 58 95 98 80 74 69 79 92 60 42 53 70 71 60
12 11 11 10 9 9 8 7 6 38 63 83 78 82 79 100 92 80 20 9 7 8 46 32 34 42 44 44 48 49 49 53 54 53 50 48 61 67 94 92 94 85 98 100 90 53 68 76 66
11 10 10 11 11 8 11 9 8 13 27 36 46 69 70 100 97 81 27 19 18 22 60 46 49 40 37 42 42 40 40 42 45 47 46 45 43 43 52 71 64 82 91 96 97 97 75 66 68
11 20 53 47 36 24 29 28 46 38 34 50 80 100 100 100 97 80 20 23 24 62 53 53 54 49 40 35 38 39 36 33 32 33 33 34 34 32 32 33 45 68 62 84 97 94 87 81 81
21 34 54 64 77 100 62 82 41 38 46 94 100 97 98 96 97 90 63 58 62 64 54 53 49 46 42 41 39 36 35 33 32 30 28 27 26 25 25 25 25 25 48 41 68 96 96 80 82
55 62 66 89 95 72 29 87 40 58 80 87 95 92 98 99 97 90 98 91 81 65 53 48 46 46 45 43 40 37 35 33 30 27 26 24 23 22 21 20 20 21 24 53 61 76 95 85 71
68 94 80 55 76 63 71 50 42 64 76 84 58 65 98 100 100 100 100 100 96 64 39 40 39 38 38 39 38 37 37 35 32 28 23 22 25 25 21 18 17 16 23 29 68 81 82 88 76
82 90 77 70 70 59 70 46 61 84 67 92 100 63 64 93 100 100 100 99 64 45 42 43 42 41 43 44 44 43 40 36 32 30 30 27 22 18 16 17 19 17 16 16 23 74 96 76 45
64 75 100 69 69 60 54 62 83 88 100 86 99 98 90 87 100 100 92 82 65 82 75 62 57 51 43 38 35 30 24 20 18 16 14 13 11 9 7 7 8 10 12 13 14 20 60 98 40
76 87 86 82 85 89 81 82 83 100 98 99 100 100 98 100 98 99 98 99 94 86 70 76 76 48 27 23 23 21 19 18 17 15 13 11 9 5 3 3 3 4 5 8 13 8 18 50 89
88 90 100 100 99 100 81 90 70 82 98 100 100 92 86 75 60 68 73 87 82 73 61 44 39 41 28 21 20 18 15 12 10 8 6 6 5 4 3 4 6 4 3 3 6 15 14 50 81
87 85 100 100 98 88 84 73 89 77 78 72 64 64 60 73 95 83 80 82 71 34 35 19 14 15 15 12 8 5 4 3 3 3 3 2 2 24 35 38 40 41 35 18 4 8 24 43 74

GFSSGP_500_rhum_120.txt.gz
RH
19 22 22 24 21 18 17 15 12 15 25 19 28 38 36 32 29 23 22 16 16 16 19 21 23 21 15 11 11 12 13 14 14 15 15 14 14 13 12 11 5 4 3 4 4 4 4 4 4
15 19 22 25 25 21 20 18 17 19 24 27 33 37 32 32 27 23 19 18 19 19 17 16 15 14 14 14 13 13 14 14 16 16 15 15 14 13 12 12 8 4 4 4 4 4 4 5 6
16 16 20 25 29 25 22 22 28 29 21 23 22 29 26 25 29 26 21 22 19 17 16 15 16 16 15 15 15 15 15 15 16 16 16 14 13 13 13 12 11 8 5 4 5 5 6 6 8
19 21 26 28 31 30 25 24 23 24 22 24 28 23 29 32 26 21 18 18 18 21 20 17 16 15 16 16 16 16 16 16 16 16 15 13 12 11 12 12 11 12 11 8 9 8 8 10 8
24 24 24 29 36 35 30 26 25 32 36 27 31 28 32 23 22 22 22 21 21 21 23 22 20 17 16 16 16 16 16 16 16 16 15 14 12 12 12 12 12 11 11 11 9 10 12 11 7
28 28 30 33 38 41 37 31 26 27 30 23 22 23 25 24 24 25 23 23 26 25 26 24 24 25 22 20 19 18 17 17 17 16 16 15 14 14 12 12 12 12 11 10 10 11 12 18 18
33 35 36 38 44 45 48 43 37 30 28 27 27 27 28 27 25 26 29 25 33 35 30 27 24 22 22 23 24 23 22 21 20 19 18 18 17 16 16 14 14 16 15 14 13 14 16 16 16
36 40 46 46 47 51 47 40 36 34 32 29 31 33 37 39 33 29 29 29 30 34 34 32 27 25 25 23 24 24 24 24 23 23 23 23 22 21 21 20 18 21 22 23 25 23 21 21 21
25 25 28 40 48 52 50 48 45 44 43 42 42 46 45 41 36 33 34 34 34 34 34 35 38 37 34 30 29 29 28 27 26 25 25 26 28 28 29 25 23 22 22 22 24 28 28 27 25
7 8 8 8 8 11 38 50 54 50 53 55 54 58 56 47 44 42 40 40 38 36 32 34 33 35 39 38 35 34 36 34 33 31 27 28 31 33 33 34 30 23 16 20 24 28 31 30 28
8 10 10 10 10 10 10 9 10 25 49 64 63 57 59 60 52 50 50 48 43 40 36 33 39 41 41 45 46 44 39 41 38 36 34 32 31 36 38 37 38 35 28 24 25 27 26 32 31
10 10 10 11 11 11 10 10 11 11 10 12 16 18 29 38 42 49 52 56 66 55 45 41 41 50 52 47 52 61 59 51 45 48 51 46 40 41 42 42 38 37 35 26 26 24 26 28 34
11 12 11 12 14 15 13 12 12 12 12 11 11 8 7 7 7 13 28 29 31 41 51 53 55 72 62 93 75 75 66 56 59 62 56 50 56 50 49 47 42 36 36 28 24 24 27 33 38
15 13 13 13 14 15 15 14 14 15 15 14 13 12 11 11 11 9 7 7 6 12 26 34 39 52 58 71 95 94 84 93 93 92 85 69 50 58 47 48 47 46 43 40 34 32 27 31 40
18 16 16 15 17 17 16 14 16 15 12 11 12 12 11 11 12 12 10 8 7 7 6 7 8 25 46 65 82 82 100 97 93 95 100 98 91 72 61 51 52 56 53 44 45 45 42 38 51
22 22 20 17 18 18 17 14 15 13 10 8 7 6 6 6 6 6 5 8 7 7 7 6 5 13 33 59 64 71 73 86 85 84 100 96 97 89 84 69 66 66 67 62 57 58 57 54 63
31 31 23 19 17 15 12 13 10 8 8 7 6 5 5 5 5 5 4 4 6 8 8 7 7 6 12 37 49 50 48 73 70 51 70 88 99 97 96 91 83 72 70 67 66 61 63 70 71
31 30 29 20 14 10 10 10 10 10 10 8 8 9 8 8 10 7 6 5 5 6 8 10 8 8 7 17 33 39 38 34 50 57 73 73 86 96 95 97 95 93 83 68 64 66 74 76 71
27 27 21 15 11 10 11 11 10 9 9 10 10 9 39 49 87 9 17 19 14 11 16 20 25 22 21 21 20 18 16 26 43 53 63 59 63 82 100 95 96 96 95 95 97 95 97 92 83
16 13 12 12 13 14 13 12 11 9 9 12 30 66 100 100 89 45 78 27 9 8 22 26 26 23 40 25 24 27 28 30 41 48 56 56 55 56 58 66 81 87 89 96 96 97 99 97 97
15 15 15 14 14 13 11 8 8 7 10 18 38 63 100 99 91 70 94 70 46 37 20 18 19 25 58 40 49 46 41 40 40 39 47 54 51 51 51 52 52 60 82 96 94 96 96 96 92
16 21 17 14 11 10 10 15 8 12 26 40 45 40 62 93 92 96 93 93 75 18 32 51 60 64 76 47 53 56 48 43 40 41 38 38 41 47 48 47 50 46 50 58 63 70 81 86 93
14 16 14 12 23 53 10 98 25 30 27 32 35 48 40 56 81 64 83 81 88 76 84 97 99 100 100 73 64 60 54 47 40 31 33 36 33 33 33 34 36 35 38 45 40 50 51 53 61
11 15 31 54 56 62 56 63 27 26 33 48 52 53 76 56 66 80 100 96 93 98 98 99 92 85 93 68 59 56 49 45 40 39 31 30 33 30 29 29 29 27 26 26 26 28 47 44 51
35 54 67 76 67 92 62 64 45 44 53 56 52 67 88 54 51 58 81 98 100 100 100 92 77 70 65 58 50 50 48 46 43 41 39 37 35 34 33 31 29 28 26 25 23 22 21 30 37
43 50 86 96 84 65 53 61 59 51 53 64 64 83 80 96 72 61 97 100 100 100 86 95 86 87 59 56 49 42 41 43 42 42 41 40 39 37 32 32 31 31 29 27 25 23 21 22 32
71 67 77 65 59 69 51 52 63 48 69 83 100 100 100 98 100 72 70 98 94 88 100 84 85 90 55 60 54 50 56 50 47 48 48 48 45 42 38 36 35 34 34 32 31 28 27 20 23
72 72 71 77 81 74 64 65 59 60 72 82 98 99 100 99 100 100 100 100 100 100 100 95 80 76 69 54 38 48 61 61 54 44 37 35 31 27 24 20 17 16 16 15 15 14 18 17 16
68 64 71 90 75 78 76 79 62 58 76 75 61 78 93 97 97 100 96 96 99 98 95 88 61 42 44 54 58 68 64 51 39 32 27 23 20 18 16 14 13 11 10 9 8 6 4 4 5
75 72 92 91 91 96 94 62 73 69 71 63 78 67 66 75 81 84 77 83 89 72 55 51 46 48 59 49 24 17 18 20 20 20 18 15 11 7 5 4 3 3 3 4 3 4 4 4 3

GFSSGP_500_rhum_123.txt.gz
RH
12 13 15 18 20 22 20 18 16 15 21 19 21 24 36 34 30 30 33 35 30 23 17 16 17 16 15 14 16 14 13 13 13 14 15 15 15 15 14 12 12 11 6 4 4 4 4 4 4
17 17 16 21 22 26 23 21 19 17 16 23 25 27 41 43 42 40 32 28 29 24 17 16 15 16 16 15 14 14 14 14 14 15 15 16 15 14 14 13 12 12 9 5 4 4 4 4 6
21 21 20 19 26 29 26 24 24 22 20 18 17 17 24 33 35 32 34 42 31 21 19 18 16 16 16 16 17 16 16 16 16 16 16 17 16 14 12 12 12 12 11 10 6 4 5 6 7
25 24 23 23 28 31 29 27 25 30 29 26 21 18 20 21 29 39 37 30 26 25 23 22 22 19 17 17 17 17 17 16 16 16 17 17 16 14 13 12 12 12 12 11 11 10 7 8 8
28 27 27 26 33 36 33 30 29 27 27 28 24 22 21 22 24 32 31 25 25 26 26 25 22 21 22 20 19 18 18 17 16 16 16 16 16 15 14 13 12 12 12 11 11 11 10 10 12
33 31 30 33 37 40 37 34 33 30 30 29 28 28 27 26 28 32 34 28 28 32 33 32 27 26 25 25 25 23 21 20 19 18 18 18 18 17 16 16 15 13 13 13 12 11 10 11 11
38 37 38 41 42 40 40 35 35 34 33 32 31 29 29 30 34 37 36 31 32 38 37 36 35 32 28 28 26 26 27 25 23 22 22 22 21 20 20 19 18 18 16 17 18 16 15 14 15
40 43 45 49 47 43 42 37 34 37 39 40 38 36 38 40 42 44 39 37 35 36 41 39 36 35 33 29 30 30 29 28 26 25 25 24 24 24 24 24 23 23 24 20 22 22 23 23 21
37 31 20 29 49 49 48 43 43 42 43 45 46 45 42 41 41 42 40 39 37 36 37 43 42 38 35 34 34 34 34 33 32 31 30 28 27 26 27 29 30 33 33 32 29 26 21 20 21
7 8 10 9 10 10 17 31 40 40 43 51 51 53 52 51 50 48 46 50 46 40 37 36 44 41 45 40 37 40 40 39 38 37 35 34 32 31 31 32 34 38 39 37 37 34 29 23 22
9 9 10 11 11 11 11 11 10 8 9 9 11 21 44 35 38 45 46 48 49 48 46 42 40 43 44 46 45 44 46 46 46 45 43 41 40 38 37 36 37 40 44 46 44 39 35 31 28
11 12 11 12 11 11 12 14 12 12 12 11 10 10 9 10 8 7 12 21 29 38 46 51 45 48 46 49 52 55 61 56 53 53 51 50 50 44 42 44 41 43 47 52 53 50 46 45 37
12 15 15 14 14 14 13 13 13 14 16 14 13 12 11 11 10 10 8 6 6 6 14 27 25 32 47 65 56 64 82 88 84 85 84 63 58 54 50 52 52 48 49 50 53 56 55 55 51
23 35 35 26 19 18 17 15 14 17 18 17 16 16 16 15 13 12 10 10 10 10 8 7 6 7 9 29 52 56 69 80 96 95 91 87 63 71 72 73 75 61 50 53 61 61 60 62 60
25 21 24 33 38 26 23 20 16 16 16 17 18 18 16 14 12 10 10 10 8 8 8 10 9 8 8 8 10 26 51 76 95 96 92 96 99 95 92 89 95 93 64 57 65 61 65 70 76
32 35 29 32 34 30 34 28 24 19 18 16 15 12 10 9 8 7 6 6 6 5 5 4 4 5 8 8 8 7 25 48 52 67 97 96 96 95 96 97 98 96 96 76 70 74 74 77 84
32 34 36 35 30 30 36 30 29 27 20 14 11 9 10 11 10 9 8 8 8 8 8 7 6 5 5 7 8 8 8 16 40 45 59 60 90 92 95 95 96 91 96 95 84 74 77 76 83
30 34 33 34 36 42 43 34 33 28 18 12 10 11 12 11 10 9 8 8 7 7 6 8 9 8 9 10 8 9 9 9 12 41 51 57 64 65 70 75 93 97 97 95 93 81 87 82 82
39 38 34 30 28 27 26 23 22 17 13 12 13 14 14 13 11 10 9 8 8 7 6 8 14 15 16 16 15 12 15 23 16 28 38 37 45 52 60 56 77 96 96 96 91 95 94 93 96
40 37 34 29 22 20 19 18 16 14 15 14 14 13 12 11 10 9 8 11 13 16 14 28 56 40 32 38 36 25 26 23 20 20 28 38 40 52 50 43 58 68 91 97 96 96 96 97 96
33 32 30 25 21 18 17 16 15 15 14 13 12 11 11 14 16 26 34 73 81 90 62 52 64 81 81 42 17 18 30 36 29 25 18 22 36 63 59 56 55 58 60 79 97 77 96 96 97
21 20 19 19 20 19 18 15 14 14 14 16 20 27 34 32 26 28 32 52 100 100 96 82 98 99 70 48 50 83 76 49 32 43 53 33 30 46 54 48 47 48 54 52 52 60 88 97 92
22 22 21 19 16 13 12 35 10 12 19 23 22 27 30 25 31 39 52 50 55 85 87 99 80 70 98 100 96 92 92 74 44 40 53 56 47 37 45 45 40 39 42 47 48 46 58 69 69
19 16 14 13 13 10 13 64 24 38 34 27 24 23 26 35 42 40 55 84 82 91 97 95 95 96 83 77 62 71 57 61 80 80 63 59 52 48 43 42 39 38 35 34 33 34 38 38 47
16 18 19 22 37 40 45 46 45 34 32 37 35 37 33 26 42 51 66 80 66 86 94 93 84 100 76 74 82 79 60 52 58 68 63 56 53 51 45 38 39 33 30 30 27 27 25 29 27
18 28 51 72 68 58 52 43 37 47 46 37 43 43 50 48 96 94 100 100 94 85 69 100 82 83 95 79 89 70 45 52 48 50 53 53 50 46 44 42 38 35 32 31 29 27 24 25 25
41 49 54 73 64 56 46 38 37 42 54 57 59 55 88 100 100 100 100 100 100 100 100 100 100 84 78 92 67 54 61 62 53 50 46 36 41 50 43 41 42 40 39 35 30 28 24 23 24
65 72 62 72 80 68 51 46 43 48 53 63 65 63 56 77 96 100 100 100 100 99 97 81 92 99 100 94 78 82 80 46 40 37 35 37 40 50 50 48 47 46 45 44 44 40 35 33 30
93 77 80 98 84 88 72 53 60 59 62 63 73 67 56 48 47 61 93 100 97 86 94 85 92 95 89 66 59 62 34 42 58 61 58 53 52 51 52 50 48 47 44 42 39 36 33 30 28
100 72 83 100 82 87 84 53 77 86 81 76 72 78 72 75 78 77 77 74 74 67 60 63 83 66 56 47 53 46 44 52 51 33 19 22 43 50 48 44 37 34 30 26 23 22 20 18 15